SCP
0 0 0 0 0 0 0 0 0 0 0 0 0 0 0 0 0 0 0 0 0 0 0 0 0 0 0 0 0 0 0 0 0 0 0 0 0 0 0 0 0 0 0
0 0 0 0 0 0 0 0 0 0 0 0 0 0 0 0 0 0 0 0 0 0 0 0 0 0 0 0 0 0 0 0 0 0 0 0 0 0 0 0 0 0 0
0 0 0 0 0 0 0 0 0 0 0 0 0 0 0 0 0 0 0 0 0 0 0 0 0 0 0 0 0 0 0 0 0 0 0 0 0 0 0 0 0 0 0
0 0 0 0 0 0 0 0 0 0 0 0 0 0 0 0 0 0 0 0 0 0 0 0 0 0 0 0 0 0 0 0 0 0 0 0 0 0 0 0 0 0 0
0 0 0 0 0 0 0 0 0 0 0 0 0 0 0 0 0 0 0 0 0 0 0 0 0 0 0 0 0 0 0 0 0 0 0 0 0 0 0 0 0 0 0
0 0 0 0 0 0 0 0 0 0 0 0 0 0 0 0 0 0 0 0 0 0 0 0 0 0 0 0 0 0 0 0 0 0 0 0 0 0 0 0 0 0 0
0 0 0 0 0 0 0 0 0 0 0 0 0 0 0 0 0 0 0 0 0 0 0 0 0 0 0 0 0 0 0 0 0 0 0 0 0 0 0 0 0 0 0
0 0 0 0 0 0 0 0 0 0 0 0 0 0 0 0 0 0 0 0 0 0 0 0 0 0 0 0 0 0 0 0 0 0 0 0 0 0 0 0 0 0 0
0 0 0 0 0 0 0 0 0 0 0 0 0 0 0 0 0 0 0 0 0 0 0 0 0 0 0 0 0 0 0 0 0 0 0 0 0 0 0 0 0 0 0
0 0 0 0 0 0 0 0 0 0 0 0 0 0 0 0 0 0 0 0 0 0 0 0 0 0 0 0 0 0 0 0 0 0 0 1 1 1 1 0 0 0 0
0 0 0 0 0 0 0 0 0 0 0 0 0 0 0 0 0 0 0 0 0 0 0 0 0 0 0 0 0 0 0 0 0 0 0 0 1 1 1 1 1 1 1
0 0 0 0 0 0 0 0 0 0 0 0 0 0 0 0 0 0 0 0 0 0 0 0 0 0 0 0 0 0 0 0 0 0 0 0 0 0 1 1 1 1 1
0 0 0 0 0 0 0 0 0 0 0 0 0 0 0 0 0 0 0 0 0 0 0 0 0 0 0 0 0 0 0 0 0 0 0 0 0 0 0 0 0 1 1
0 0 0 0 0 0 0 0 0 0 0 0 0 0 0 0 0 0 0 0 0 0 0 0 0 0 0 0 0 0 0 0 0 0 0 0 0 0 0 0 0 0 0
0 0 0 0 0 0 0 0 0 0 0 0 0 0 0 0 0 0 0 0 0 0 0 0 0 0 0 0 0 0 0 0 0 0 0 0 0 0 0 0 0 0 0
0 0 0 0 0 0 0 0 0 0 0 0 0 0 0 0 0 0 0 0 0 0 0 0 0 0 0 0 0 0 0 0 0 0 0 0 0 0 0 0 0 0 0
0 0 0 0 0 0 0 0 0 0 0 0 0 0 0 0 0 0 0 0 0 0 0 0 0 0 0 0 0 0 0 0 0 0 0 0 0 0 0 0 0 0 0
0 0 0 0 1 1 1 1 1 0 0 0 0 0 0 0 0 0 0 0 0 0 0 0 0 0 0 0 0 0 0 0 0 0 0 0 0 0 0 0 0 0 0
0 0 0 1 1 1 1 1 1 1 1 0 0 0 0 0 0 0 0 0 0 0 0 0 0 0 0 0 0 0 0 0 0 0 0 0 0 0 0 0 0 0 0
1 1 1 1 1 1 1 1 1 1 1 1 1 1 1 0 0 0 0 0 0 0 0 0 0 0 0 0 0 0 0 0 0 0 0 0 0 0 0 0 0 0 0
1 1 1 1 1 1 1 1 1 1 1 1 1 1 1 1 0 0 1 0 0 0 0 0 0 0 0 0 0 0 0 0 0 0 0 0 0 0 0 0 0 0 0
1 1 1 1 1 1 1 1 1 1 1 1 1 1 1 1 0 0 0 0 0 0 0 0 0 0 0 0 0 0 0 0 0 0 0 0 0 0 0 0 0 0 0
1 1 1 1 1 1 1 0 0 0 1 1 1 1 1 1 0 0 0 0 0 0 0 0 0 0 0 0 0 0 0 0 0 0 0 0 0 0 0 0 0 0 0
1 1 1 1 1 0 0 0 0 0 0 0 0 0 0 0 0 0 0 0 0 0 0 0 0 0 0 0 0 0 0 0 0 0 0 0 0 0 0 0 0 0 0
0 0 1 0 0 0 0 0 0 0 0 0 0 0 0 0 0 0 0 0 0 0 0 0 0 0 0 0 0 0 0 0 0 0 0 0 0 0 0 0 0 0 0
0 0 0 0 0 0 0 0 0 0 0 0 0 0 0 0 0 0 0 0 0 0 0 0 0 0 0 0 0 0 0 0 0 0 0 0 0 0 0 0 0 0 0
Wind_Speed
2 2 1 1 1 1 2 2 2 2 2 2 3 4 4 5 5 3 3 10 11 12 13 14 14 13 13 13 12 12 12 12 12 11 11 11 11 11 10 10 9 8 8
3 2 2 1 1 1 2 2 2 2 2 2 2 4 5 5 5 5 4 6 11 12 13 14 14 14 14 13 13 13 12 12 12 11 11 10 10 10 10 10 10 9 8
3 3 2 2 1 1 2 2 2 1 1 1 1 3 4 5 5 6 5 4 5 10 12 13 13 13 14 14 14 13 13 12 12 11 11 10 10 10 10 10 10 9 8
4 3 3 2 1 2 2 2 2 2 1 1 1 1 2 3 5 5 5 4 4 4 8 12 12 11 12 13 14 14 13 12 12 12 12 11 11 10 10 10 10 9 9
4 3 2 2 3 3 3 2 2 2 1 1 1 1 2 2 3 5 5 5 5 4 4 7 11 11 12 13 13 14 14 13 13 13 13 13 13 12 11 11 10 10 10
4 4 3 3 3 4 3 2 3 2 1 1 1 1 0 1 2 3 4 3 4 5 5 5 5 7 11 12 12 12 13 14 13 14 14 14 14 13 12 12 11 11 11
4 4 3 3 3 3 2 2 2 3 2 1 3 3 3 2 0 1 2 2 3 3 4 4 4 3 4 9 11 11 12 13 13 13 14 14 14 13 13 13 13 12 12
4 4 4 3 3 3 3 3 3 2 2 2 3 3 3 4 3 1 1 2 3 2 3 4 4 4 3 3 5 10 11 11 13 13 13 13 13 13 13 13 13 13 13
4 4 4 3 3 3 2 2 3 3 2 2 2 3 3 2 2 3 1 1 2 2 2 2 3 4 4 3 3 6 9 10 11 12 12 12 12 13 13 13 14 14 14
4 4 4 4 3 3 3 2 3 2 3 2 2 1 2 3 3 0 3 2 1 2 2 2 2 3 4 3 4 6 7 8 8 9 9 10 11 12 13 13 14 15 15
3 4 4 4 4 3 3 3 3 3 3 2 1 1 2 2 2 3 1 2 3 2 2 2 2 3 3 4 3 5 6 6 5 6 6 7 8 9 11 13 14 15 15
2 3 4 4 4 3 3 3 3 3 2 3 2 2 2 2 1 2 2 1 2 3 2 2 2 2 3 4 5 8 7 6 6 5 5 5 6 7 9 11 13 14 15
3 4 4 4 3 3 4 3 3 3 3 3 2 2 2 2 2 3 3 1 1 2 3 2 2 2 3 4 4 8 8 8 7 6 6 5 6 6 7 8 10 11 12
5 5 6 5 5 5 4 4 2 2 2 2 2 2 1 1 2 2 3 3 1 2 3 3 2 2 3 4 6 9 5 9 9 8 8 7 7 7 7 8 8 9 10
5 6 6 6 6 5 5 4 3 3 3 3 3 2 1 1 1 1 2 3 4 2 3 4 3 2 2 3 6 5 5 9 10 10 10 10 9 9 9 9 9 9 10
5 6 6 7 6 6 5 5 3 3 3 3 3 3 2 2 1 1 1 2 3 4 3 3 3 3 2 3 7 5 6 11 12 12 12 12 12 12 12 12 11 11 11
5 7 7 7 7 7 6 5 5 4 5 4 4 4 4 3 2 2 1 2 2 3 4 4 3 2 2 3 3 4 5 6 6 12 13 13 14 13 13 14 13 13 12
5 6 7 7 8 7 7 7 7 7 6 6 6 5 6 4 5 4 3 3 3 3 4 5 3 3 5 5 4 5 5 6 6 11 14 15 15 15 15 15 15 14 14
4 4 5 6 7 6 6 7 7 6 6 6 6 6 6 5 6 4 5 4 4 4 4 4 5 3 4 4 4 5 6 5 6 9 12 15 16 16 16 16 16 16 16
3 3 4 5 5 5 5 5 5 6 6 6 6 6 7 7 7 7 6 6 5 5 4 4 5 4 4 4 3 5 5 5 6 7 9 9 11 14 15 16 16 17 16
2 2 3 3 3 3 3 3 4 5 5 6 6 6 7 8 9 8 6 6 5 5 5 5 6 5 5 4 5 4 6 6 6 5 5 6 6 6 7 11 15 16 17
0 1 1 2 2 2 2 3 3 3 3 5 6 6 6 7 8 9 10 9 8 7 7 6 6 7 9 7 6 5 5 5 6 4 4 7 5 7 7 6 12 16 17
2 2 1 2 2 1 1 0 1 2 1 2 3 3 4 3 3 3 5 6 7 8 9 7 8 9 8 7 6 6 7 8 9 5 3 6 5 7 7 8 15 16 17
3 3 3 3 3 2 2 2 1 1 1 2 2 2 1 2 5 4 3 4 5 6 7 7 7 8 8 7 7 9 10 9 7 5 5 7 6 7 8 7 13 17 18
3 3 2 3 3 3 4 4 3 2 2 3 3 3 2 2 5 6 4 4 6 7 8 10 11 12 13 14 11 6 6 7 10 7 6 6 7 7 7 8 11 16 18
3 3 4 3 3 3 5 6 5 3 3 3 3 3 4 4 6 6 4 4 7 8 8 10 10 11 10 12 14 11 9 9 9 7 6 6 7 5 6 6 8 8 10
Wind_Direction
122 125 130 134 148 146 155 167 174 174 172 165 158 147 151 166 174 178 208 206 201 192 185 182 181 180 179 178 177 177 177 176 174 171 170 170 169 168 167 166 163 160 158
114 114 104 99 103 134 151 158 161 163 175 169 167 148 159 163 175 183 200 213 208 198 193 189 188 187 185 185 184 184 184 184 182 180 178 176 176 177 176 174 173 171 168
106 108 101 86 64 85 115 111 110 108 125 144 177 153 160 171 177 186 191 200 205 206 201 195 194 194 192 191 191 190 190 189 188 188 186 184 184 184 183 182 182 180 178
104 95 93 75 59 75 95 103 90 92 84 99 130 155 160 170 183 187 191 195 198 205 207 203 198 198 199 199 198 197 196 195 194 194 193 192 192 192 191 190 189 188 188
101 96 88 67 77 78 78 99 82 99 102 107 144 150 162 171 179 184 188 194 197 199 199 212 207 202 205 207 206 204 202 201 200 200 200 200 200 199 199 198 197 196 196
103 99 91 72 79 80 67 70 73 65 101 125 87 87 99 170 164 170 182 185 196 202 199 206 204 212 213 212 211 211 209 207 206 206 207 208 208 206 204 204 204 204 203
107 98 95 81 82 86 82 77 75 59 37 47 66 32 7 8 67 188 175 168 186 197 193 197 195 199 216 220 218 215 214 214 211 212 212 213 214 211 209 209 209 210 210
125 116 113 105 98 90 69 58 68 76 29 45 106 89 34 359 353 357 169 165 173 171 180 191 189 194 205 206 221 220 218 220 220 218 218 217 218 216 214 214 214 214 215
134 126 123 116 110 109 101 82 78 92 68 17 78 133 136 193 301 335 342 158 168 166 184 183 189 195 198 199 206 221 220 221 225 226 223 221 220 220 218 219 219 218 219
149 142 132 123 116 116 114 107 93 97 104 55 11 38 137 153 142 18 333 331 267 188 196 195 182 185 186 185 194 203 214 218 225 231 232 229 224 223 223 224 225 224 223
171 164 149 132 129 129 129 111 102 94 103 110 81 54 56 58 90 131 210 315 332 302 238 210 189 182 185 182 184 196 198 205 214 225 233 237 233 230 230 231 233 232 230
196 189 168 153 150 150 148 141 128 119 113 109 101 98 114 112 121 128 153 247 286 294 290 251 211 194 193 187 196 188 188 193 201 214 229 240 244 244 242 241 241 240 239
204 207 184 174 168 174 171 158 144 143 143 136 140 135 129 146 161 143 133 158 297 304 319 300 253 220 203 187 197 189 192 194 200 210 222 235 244 249 252 252 250 249 247
205 199 190 187 185 181 179 169 164 177 166 164 163 157 157 179 159 157 154 143 87 330 323 291 294 239 216 195 204 193 200 203 208 216 224 234 242 248 251 252 252 252 254
209 200 192 190 192 188 185 178 188 201 192 200 203 195 197 221 190 177 166 154 149 177 275 282 290 281 228 213 211 199 206 217 219 224 230 237 242 246 249 250 250 249 250
205 191 193 192 194 195 191 186 197 209 200 215 213 212 224 233 233 203 173 175 163 165 217 258 257 269 246 227 219 214 221 224 226 229 234 240 244 246 247 247 247 247 246
199 192 192 192 195 200 197 195 208 207 210 226 229 221 232 230 232 237 210 191 186 169 211 263 261 266 248 243 236 230 237 232 234 236 238 242 245 247 246 245 244 244 245
205 196 192 194 202 206 203 202 213 213 212 222 229 228 235 233 232 232 225 227 220 203 204 249 266 261 251 242 238 238 239 236 233 241 241 243 246 247 246 244 242 241 241
212 202 192 200 209 210 209 213 214 217 218 221 221 223 231 227 236 234 229 232 233 231 211 229 257 250 254 249 250 255 250 248 245 245 244 244 245 246 245 243 241 240 240
203 199 197 201 207 210 211 216 215 219 226 230 227 225 225 220 227 229 232 232 231 237 234 238 256 259 257 254 240 252 266 253 251 252 251 247 245 246 245 242 241 240 240
197 196 193 195 205 206 213 218 227 227 228 240 243 241 238 233 232 229 234 230 226 233 236 240 254 262 259 253 244 239 254 263 260 242 250 252 247 247 246 244 243 242 241
114 138 189 187 171 182 174 194 216 239 239 246 251 252 254 250 252 249 249 246 231 232 238 240 248 249 257 250 249 244 249 258 268 244 226 252 234 243 243 236 240 239 240
76 89 95 95 121 135 108 21 285 249 262 271 274 282 290 308 316 302 289 283 269 260 248 245 251 253 259 254 250 253 245 241 249 242 214 254 242 247 245 244 240 238 239
69 67 70 77 74 50 65 63 11 355 354 332 330 339 334 2 14 2 337 319 299 289 276 263 256 262 264 261 247 251 255 258 257 248 217 249 247 246 249 242 243 240 240
53 51 65 74 69 25 39 63 83 69 47 18 12 23 47 57 19 15 359 324 308 298 291 284 276 271 270 267 262 264 258 256 263 254 218 233 248 252 250 248 246 241 240
60 63 59 59 70 58 52 62 74 70 56 32 20 22 33 17 353 352 339 313 301 297 302 304 295 284 273 266 260 248 247 252 260 259 224 225 245 241 259 247 243 241 241